Retour au catalogue

STARLINK-30544

ActifCommunicationsVLEO
NORAD 58055·PAYLOAD·🇺🇸 United States

Lancé Oct 13, 2023 depuis Cape Canaveral Space Force Station

Loading…

Prochains Passages (prochaines 24 heures)

TLE

FraisSource: CelesTrak SupGP

Époque: Sep 14, 2026, 22:36 UTC

1 58055C 23158E   26257.94215278  .00014262  00000+0  51633-3 0  2574
2 58055  43.0049  37.9368 0002376 276.0492 217.7826 15.27583990    12

Suivez STARLINK-30544 en temps réel avec AllMySat

Download on the App Store